Wind_Speed
4 2 3 5 7 7 7 6 7 7 7 9 11 14 17 17 18 20 18 19 21 18 17 17 18 19 22 19 21 24 19 24 21 24 22 25 31 36 29 21 14 9 5
4 4 3 4 6 7 11 8 8 6 8 8 11 12 15 18 19 19 18 18 20 22 17 16 18 20 20 21 21 22 21 19 17 28 23 26 26 29 25 21 15 10 10
6 5 6 3 4 7 12 12 11 10 12 10 10 12 14 17 19 19 18 20 21 16 12 15 19 22 20 20 20 18 17 17 21 23 22 20 22 23 23 21 17 14 12
7 8 7 5 5 8 10 14 16 14 12 11 12 11 14 14 16 16 20 25 19 13 12 17 26 23 23 23 20 24 19 21 22 19 17 15 17 20 17 17 16 13 10
11 10 5 7 9 11 11 10 11 10 12 13 10 12 12 12 11 15 22 26 19 20 18 22 25 22 25 23 23 24 22 21 19 16 14 16 17 18 16 15 14 8 7
14 11 6 12 14 11 10 11 9 9 9 10 9 10 8 8 16 14 15 24 23 19 20 24 20 25 25 21 21 19 19 18 16 15 14 17 17 13 10 8 8 7 6
17 13 8 14 16 12 11 14 10 8 8 6 10 15 8 8 10 20 21 18 17 18 20 29 25 25 22 18 13 10 15 15 7 9 11 11 8 8 7 4 3 1 5
19 16 12 14 18 15 13 13 11 8 5 7 11 11 11 15 17 17 16 16 23 22 26 31 29 25 18 12 11 12 12 13 11 7 5 7 5 3 1 2 4 8 10
21 19 15 13 20 19 17 15 13 11 7 9 11 11 13 15 15 15 15 17 22 29 31 26 25 17 15 15 15 10 13 10 10 8 6 3 2 3 3 7 11 12 11
23 18 16 12 19 18 20 17 14 11 8 10 13 10 10 13 15 15 16 18 22 30 26 20 19 18 18 16 17 14 14 13 12 9 5 5 8 9 11 13 12 10 7
21 17 18 14 15 18 21 19 16 14 10 10 13 14 12 11 13 15 17 19 22 23 21 21 20 17 15 15 14 15 15 15 12 11 12 12 11 9 9 9 8 6 5
23 19 21 19 14 17 18 20 18 17 16 14 12 13 15 14 14 16 16 14 15 17 20 20 19 18 16 15 15 15 14 13 13 13 12 11 10 9 7 5 5 7 9
26 22 23 24 20 17 16 19 20 18 22 20 17 13 14 17 18 16 16 17 15 14 15 17 17 17 17 16 14 14 13 12 11 11 10 8 5 3 4 5 6 9 9
29 25 26 27 25 22 20 17 20 21 23 26 21 20 15 15 20 22 20 17 17 17 17 18 18 18 19 18 17 15 13 13 13 12 10 8 7 6 5 5 7 6 4
31 29 30 29 28 25 22 18 18 20 23 26 25 20 20 18 20 23 23 21 19 20 19 21 23 22 23 21 19 18 16 16 16 13 12 11 8 7 8 7 6 6 6
33 32 33 33 33 30 27 23 19 14 17 22 22 21 19 14 16 20 22 21 21 22 23 25 25 23 22 21 20 19 18 19 16 14 14 12 8 7 7 8 8 6 3
34 34 35 33 35 34 31 27 23 21 19 21 25 24 20 17 18 17 21 25 24 25 27 26 26 25 24 23 22 21 21 18 14 15 14 12 11 12 12 13 9 6 4
36 34 36 35 35 36 33 29 25 23 24 26 27 29 24 22 21 19 19 28 31 32 31 31 29 27 27 26 25 24 24 23 21 20 19 17 15 15 15 12 11 8 5
37 38 38 37 36 35 34 32 29 25 24 23 27 30 30 27 25 24 26 31 37 38 37 35 32 30 29 28 27 26 27 26 25 25 22 19 18 18 17 14 12 9 5
36 38 41 40 38 37 37 35 32 30 26 26 29 29 33 33 30 31 32 35 36 38 37 38 37 33 31 31 31 31 31 29 30 27 23 21 23 20 17 15 12 8 5
33 37 39 41 39 38 38 37 34 31 29 28 28 29 31 36 36 34 34 38 38 36 36 36 37 35 33 35 33 32 34 34 33 29 26 28 26 24 18 15 11 8 4
34 34 39 40 41 39 39 38 37 34 32 30 28 27 28 33 37 40 39 40 40 41 39 36 36 33 30 42 38 37 39 39 36 31 31 26 24 22 19 15 11 6 3
33 34 36 41 41 41 42 41 40 38 36 34 33 31 29 32 34 36 40 44 43 42 43 41 39 39 40 40 39 38 42 42 37 34 34 30 23 21 19 14 10 5 3
34 33 33 37 42 43 44 44 43 40 38 37 36 36 35 34 33 33 37 38 40 45 44 45 41 46 41 39 39 39 39 39 36 33 29 24 23 20 18 15 11 5 4
37 37 36 36 37 36 39 41 41 41 39 38 38 39 38 39 37 37 38 38 40 41 45 48 48 47 40 37 41 39 37 29 27 28 23 22 23 18 17 14 9 6 5
24 32 34 33 36 35 33 34 37 40 42 39 34 33 36 35 38 44 45 44 44 43 43 49 51 47 41 38 40 41 40 40 35 26 25 27 22 20 17 13 9 8 6
Wind_Direction
225 179 62 64 54 51 45 98 102 91 118 132 143 152 152 157 169 174 173 176 180 181 189 189 187 187 185 188 186 182 178 182 169 177 187 177 183 180 184 192 199 210 237
206 205 140 82 75 74 63 86 110 103 109 127 136 143 151 157 166 173 166 170 179 172 168 174 175 175 185 182 187 184 177 177 180 160 165 170 175 182 194 201 210 232 248
187 181 170 133 118 86 78 77 105 114 116 120 140 142 142 159 162 167 171 159 150 153 174 184 174 162 162 161 170 169 158 171 164 162 163 174 184 194 200 206 220 239 232
188 189 187 150 138 119 105 90 90 101 102 112 132 151 155 162 175 171 178 167 155 138 128 155 155 156 154 149 146 160 154 141 152 157 169 172 177 179 195 215 218 214 216
192 192 184 153 149 134 128 115 103 119 99 90 133 134 150 163 166 175 172 177 163 138 125 150 152 150 157 146 137 144 150 153 161 171 178 175 176 188 197 199 203 211 238
195 198 183 160 147 141 129 128 128 110 98 89 112 143 127 142 183 171 156 160 159 145 141 154 147 147 143 132 133 147 154 159 168 178 188 190 188 191 195 200 205 228 272
196 197 192 172 163 156 149 150 134 121 105 99 98 130 129 125 131 179 187 184 178 162 153 156 158 161 147 132 131 151 146 153 129 123 155 154 152 158 181 175 157 290 327
196 197 197 181 169 163 164 162 156 141 103 117 119 126 124 127 116 127 139 157 170 174 167 163 153 151 153 143 147 152 144 147 160 166 143 127 118 126 240 279 278 279 276
198 196 200 194 179 180 177 176 174 166 142 145 139 128 120 124 132 131 134 131 145 152 164 172 174 163 163 158 156 151 160 166 168 157 157 170 131 229 273 281 268 261 256
202 199 198 192 188 188 187 187 183 182 161 156 161 154 141 131 129 138 145 149 149 159 155 155 164 165 163 163 169 173 176 176 186 184 177 221 245 248 243 243 245 248 250
204 201 198 198 191 186 184 189 197 198 192 161 166 165 165 156 147 143 147 147 151 158 165 165 165 169 170 170 179 197 202 202 201 199 208 210 205 204 231 257 268 290 308
201 198 200 202 189 189 193 190 196 203 201 183 172 169 176 176 172 169 172 168 164 166 165 166 172 177 182 184 185 185 184 184 189 196 205 217 226 232 240 272 303 304 333
196 197 198 204 201 195 195 200 200 201 199 196 194 192 189 192 194 192 186 187 189 185 182 186 189 191 191 187 188 188 187 194 210 225 233 230 224 250 269 281 301 315 307
196 199 202 206 206 205 206 207 207 206 200 199 204 208 207 205 202 203 201 198 194 192 193 197 198 197 193 193 195 199 207 222 236 241 241 229 231 228 235 256 271 282 293
198 201 207 210 211 209 213 215 215 216 212 205 209 211 212 215 207 205 205 200 195 190 193 194 195 195 194 197 204 213 222 237 242 237 222 211 202 216 262 265 240 194 193
198 203 208 212 213 213 213 215 217 219 221 219 220 221 224 226 209 207 207 204 202 196 197 198 198 200 204 208 215 227 236 237 225 212 200 204 237 258 245 219 193 180 151
205 203 209 214 215 216 216 219 218 214 214 216 218 218 221 211 201 205 209 208 209 206 207 207 209 212 215 220 227 238 244 236 224 213 216 239 240 217 211 186 178 169 153
212 211 210 214 218 219 221 224 224 224 220 213 211 210 210 204 202 207 213 211 214 214 214 212 215 218 221 225 229 231 234 232 228 225 224 227 213 210 193 182 171 174 157
215 215 215 219 221 223 225 226 228 228 229 227 211 209 207 208 211 215 223 221 216 217 217 219 220 223 225 224 223 227 235 234 224 218 214 212 205 199 187 181 180 166 150
216 220 219 220 225 224 226 227 229 232 233 230 223 219 213 210 214 218 224 222 224 226 225 225 226 229 231 231 235 235 232 221 215 212 211 209 197 194 188 186 176 166 160
214 219 223 224 226 229 229 230 233 234 236 234 233 228 224 220 220 222 224 225 226 227 229 231 231 233 240 238 238 237 230 227 217 214 214 200 194 181 187 192 186 181 170
217 218 220 225 229 230 233 234 234 237 239 240 241 237 231 231 231 231 232 232 234 235 236 235 233 230 249 246 240 238 230 223 214 209 200 191 188 186 192 188 186 188 203
225 223 223 224 229 235 236 239 240 239 240 243 244 242 239 236 236 237 239 240 240 239 239 235 233 236 241 240 238 239 231 223 215 207 193 181 187 200 188 186 191 194 227
227 229 227 227 230 234 237 240 241 244 246 247 247 249 246 243 244 246 246 245 244 243 241 234 235 244 241 243 233 223 220 216 205 190 181 174 195 193 192 196 200 211 245
229 231 233 232 232 239 241 240 242 244 246 247 248 250 254 250 244 246 248 251 250 245 241 236 235 236 235 236 224 220 218 197 180 176 178 191 200 197 200 201 210 243 255
223 230 234 237 238 241 245 244 243 242 245 243 247 252 254 256 256 252 247 245 247 247 240 236 235 234 232 224 216 209 204 181 182 184 190 205 200 198 201 205 220 237 258
Height
1461 1462 1463 1462 1461 1459 1457 1457 1456 1455 1455 1455 1456 1458 1459 1462 1465 1468 1472 1475 1478 1481 1484 1487 1490 1492 1496 1500 1503 1506 1509 1510 1513 1519 1524 1529 1534 1537 1545 1551 1554 1558 1560
1461 1463 1464 1463 1462 1461 1460 1459 1459 1459 1459 1459 1460 1461 1463 1465 1467 1470 1473 1476 1479 1483 1486 1488 1491 1494 1497 1501 1504 1508 1511 1513 1514 1519 1526 1530 1536 1542 1547 1551 1555 1557 1560
1462 1463 1464 1464 1464 1464 1463 1461 1461 1461 1462 1462 1463 1465 1466 1468 1469 1473 1476 1479 1483 1486 1487 1488 1491 1495 1498 1502 1506 1509 1511 1513 1518 1523 1528 1535 1539 1544 1548 1552 1554 1557 1558
1461 1463 1464 1465 1465 1466 1466 1466 1466 1465 1466 1465 1466 1468 1470 1471 1472 1475 1478 1482 1485 1487 1488 1490 1494 1498 1501 1504 1508 1512 1514 1518 1522 1527 1532 1536 1539 1544 1548 1551 1554 1555 1557
1460 1463 1464 1465 1467 1468 1469 1469 1469 1469 1470 1469 1468 1469 1472 1472 1474 1476 1479 1484 1488 1489 1492 1494 1498 1501 1505 1507 1510 1514 1518 1521 1525 1529 1533 1536 1539 1543 1547 1551 1554 1554 1556
1459 1462 1464 1466 1468 1469 1470 1471 1471 1472 1473 1473 1472 1473 1472 1472 1473 1478 1481 1485 1489 1492 1495 1497 1501 1505 1508 1511 1515 1519 1522 1525 1528 1531 1534 1539 1543 1546 1549 1552 1552 1553 1554
1458 1461 1464 1466 1469 1470 1472 1473 1473 1474 1475 1476 1476 1476 1475 1476 1476 1478 1483 1486 1491 1495 1497 1500 1503 1508 1512 1515 1519 1522 1525 1527 1531 1534 1538 1540 1543 1546 1550 1550 1549 1552 1553
1455 1459 1463 1465 1469 1471 1473 1475 1476 1477 1478 1478 1479 1480 1480 1480 1482 1483 1484 1483 1490 1495 1498 1503 1507 1511 1516 1519 1522 1524 1526 1529 1533 1537 1540 1542 1543 1545 1548 1548 1548 1551 1552
1452 1457 1461 1464 1467 1471 1473 1475 1477 1479 1481 1481 1483 1483 1484 1484 1486 1488 1489 1491 1494 1497 1502 1506 1511 1515 1519 1523 1525 1527 1529 1532 1535 1538 1539 1541 1542 1548 1545 1545 1549 1552 1552
1449 1454 1458 1461 1465 1469 1473 1475 1477 1480 1482 1484 1485 1486 1488 1489 1490 1492 1493 1495 1498 1501 1505 1510 1514 1517 1520 1523 1526 1529 1531 1534 1538 1539 1539 1540 1544 1544 1544 1549 1548 1548 1547
1447 1452 1456 1460 1463 1467 1471 1475 1477 1480 1483 1485 1487 1488 1490 1491 1493 1495 1498 1500 1502 1504 1508 1511 1514 1518 1521 1524 1527 1531 1534 1535 1536 1537 1539 1541 1543 1544 1545 1545 1546 1543 1540
1444 1449 1453 1458 1462 1465 1468 1472 1476 1479 1482 1485 1487 1488 1491 1493 1495 1497 1500 1503 1505 1508 1510 1513 1516 1520 1523 1525 1528 1531 1532 1534 1536 1538 1538 1540 1541 1542 1543 1541 1540 1542 1538
1441 1446 1450 1455 1458 1462 1466 1469 1473 1476 1479 1482 1485 1488 1490 1492 1495 1497 1501 1503 1506 1510 1512 1515 1517 1520 1523 1525 1528 1530 1532 1533 1534 1536 1536 1537 1538 1539 1540 1541 1539 1538 1536
1437 1442 1447 1451 1455 1459 1463 1466 1469 1472 1475 1479 1482 1485 1488 1490 1493 1496 1499 1502 1505 1508 1511 1514 1517 1520 1522 1524 1526 1528 1530 1531 1532 1532 1534 1536 1537 1537 1539 1538 1538 1537 1535
1434 1438 1443 1448 1452 1456 1459 1462 1465 1468 1471 1474 1477 1481 1484 1486 1489 1493 1497 1500 1503 1506 1509 1511 1513 1517 1520 1521 1523 1526 1527 1528 1528 1530 1533 1535 1535 1536 1536 1538 1536 1535 1537
1428 1433 1438 1442 1447 1452 1455 1459 1463 1466 1469 1472 1476 1479 1482 1485 1488 1491 1495 1499 1502 1505 1507 1509 1511 1513 1516 1518 1520 1522 1524 1524 1525 1529 1530 1531 1531 1531 1533 1536 1535 1534 1534
1422 1427 1433 1438 1442 1446 1451 1455 1458 1462 1465 1468 1471 1475 1478 1482 1485 1488 1492 1496 1499 1502 1504 1506 1508 1511 1513 1516 1518 1519 1519 1520 1522 1524 1526 1526 1528 1531 1530 1530 1533 1533 1532
1417 1422 1427 1431 1436 1441 1445 1449 1453 1456 1458 1461 1465 1469 1473 1477 1481 1486 1489 1492 1493 1496 1498 1501 1504 1507 1509 1511 1513 1514 1515 1517 1519 1520 1521 1524 1526 1526 1528 1529 1528 1530 1531
1412 1417 1421 1426 1430 1435 1440 1445 1448 1451 1454 1457 1460 1464 1468 1472 1476 1479 1483 1483 1485 1488 1493 1497 1500 1502 1504 1505 1507 1509 1510 1511 1513 1515 1517 1519 1521 1523 1523 1525 1527 1527 1529
1406 1410 1415 1420 1424 1429 1434 1438 1442 1446 1449 1452 1455 1458 1462 1466 1468 1470 1473 1477 1479 1482 1486 1490 1493 1496 1498 1500 1501 1502 1503 1505 1506 1508 1511 1512 1514 1518 1522 1523 1524 1525 1526
1401 1405 1410 1415 1419 1422 1427 1431 1435 1439 1442 1445 1448 1452 1456 1459 1462 1464 1466 1468 1471 1473 1476 1481 1485 1489 1493 1494 1494 1495 1496 1498 1501 1503 1505 1506 1509 1510 1516 1522 1522 1522 1523
1395 1399 1404 1407 1412 1417 1420 1424 1428 1432 1435 1439 1442 1446 1450 1452 1454 1456 1459 1461 1464 1467 1471 1474 1478 1481 1483 1484 1486 1486 1488 1490 1493 1495 1499 1506 1508 1506 1513 1517 1518 1519 1520
1389 1393 1398 1402 1406 1409 1413 1416 1420 1424 1427 1431 1434 1438 1442 1444 1446 1448 1450 1453 1456 1459 1462 1467 1470 1471 1471 1473 1476 1480 1483 1484 1487 1488 1492 1495 1505 1509 1509 1512 1515 1516 1517
1384 1387 1392 1396 1399 1403 1406 1409 1413 1417 1420 1423 1426 1427 1432 1436 1438 1440 1441 1444 1446 1449 1452 1457 1459 1463 1467 1469 1472 1475 1477 1479 1481 1487 1493 1493 1502 1507 1507 1509 1511 1512 1513
1379 1383 1386 1390 1394 1397 1400 1403 1407 1410 1412 1415 1417 1419 1421 1425 1429 1430 1432 1435 1437 1439 1443 1446 1449 1452 1456 1460 1461 1465 1470 1479 1485 1489 1492 1495 1499 1504 1507 1507 1508 1510 1510
1374 1378 1382 1385 1388 1391 1394 1396 1399 1402 1405 1407 1410 1412 1413 1415 1418 1420 1423 1426 1427 1430 1433 1436 1439 1442 1446 1451 1455 1456 1457 1468 1478 1485 1491 1495 1497 1500 1503 1504 1505 1507 1507